[[{"header":{"parameterUnit":"m.s-1","parameterCategory":1,"la1":30.2991,"la2":30.254,"lo1":-89.0895,"lo2":-89.0444,"dy":0.0017,"dx":0.0017,"nx":28,"ny":28,"refTime":"2026-02-05T09:00:00:Z","depth":0,"parameterNumber":2,"parameterNumberName":"U-component_of_WINDS"},"data":[0,0,0,0,0,0,0,0,0,0,0,0,0,0,0,0,0,0,0,0,0,0,0,0,0,0,0,0,0,0,0,0,0,0,0,0,0,0,0,0,0,0,0,0,0,0,0,0,0,0,0,0,0,0,0,0,0,0,3.0217,3.0217,0,3.0264,3.0265,3.0265,3.0228,3.0226,3.0225,3.0223,3.027,3.0273,3.0276,0,0,0,0,0,0,0,0,0,0,0,0,0,3.0094,3.0096,3.0217,3.0217,3.0218,3.0264,3.0265,3.0265,3.0228,3.0226,3.0224,3.0223,3.0269,3.0273,3.0276,0,0,0,0,0,0,0,0,0,0,0,0,0,3.0145,3.0097,3.0217,3.0205,3.0204,3.0264,3.0265,3.0266,3.0229,3.0226,3.0224,3.0222,3.0268,3.0272,3.0276,3.0349,0,0,3.0289,3.0291,0,0,0,0,0,0,0,0,3.0142,3.0149,3.0206,3.0206,3.0205,3.0238,3.0239,3.0294,3.0229,3.0219,3.0223,3.022,3.0261,3.0266,3.028,3.0352,3.0354,3.0289,3.0292,3.0294,3.0295,0,0,0,0,0,0,0,3.0139,3.0147,3.0235,3.0207,3.0207,3.0197,3.0202,3.0249,3.0253,3.022,3.0217,3.0224,3.0261,3.0276,3.0281,3.0354,3.0289,3.0293,3.0295,3.0297,3.0491,3.0493,0,0,0,0,0,0,3.0136,3.0145,3.0234,3.0237,3.0167,3.0202,3.0207,3.023,3.0252,3.0254,3.0226,3.0222,3.027,3.0276,3.0282,3.0371,3.0293,3.0297,3.03,3.0488,3.0491,3.0494,0,0,0,0,0,0,3.0134,3.0145,3.0232,3.019,3.0201,3.0206,3.0232,3.0232,3.0247,3.0257,3.0257,3.0241,3.0269,3.0276,3.0334,3.0372,3.0299,3.0303,3.0485,3.0489,3.0493,3.0547,0,0,0,0,0,0,3.013,3.0144,3.0172,3.0191,3.0203,3.0283,3.0235,3.0235,3.0255,3.025,3.0271,3.0272,3.0267,3.0328,3.0338,3.0376,3.0306,3.0481,3.0487,3.0491,3.0542,3.0553,3.0562,0,0,0,0,0,3.0126,3.0184,3.0173,3.0184,3.0238,3.0285,3.0292,3.0285,3.0258,3.0286,3.0292,3.0271,3.0366,3.0334,3.0345,3.0385,3.0479,3.0485,3.0491,3.0538,3.055,3.0561,0,0,0,0,0,0,3.0168,3.0186,3.0174,3.024,3.0262,3.0279,3.0313,3.0299,3.0328,3.0322,3.0313,3.0318,3.0378,3.0387,3.0351,3.0458,3.0418,3.0427,3.045,3.0462,3.0472,3.0468,3.031,0,0,0,0,0,3.0185,3.0222,3.0236,3.0293,3.0305,3.0308,3.0328,3.0321,3.0343,3.0351,3.0361,3.0383,3.0417,3.044,3.0472,3.0543,3.0548,3.0577,3.0586,3.0594,3.0602,3.0642,3.0655,3.0514,3.0514,3.0514,0,0,3.022,3.0235,3.0259,3.0302,3.0318,3.0357,3.0315,3.0357,3.0386,3.0357,3.0412,3.0421,3.0444,3.0509,3.0538,3.0518,3.0642,3.0602,3.0608,3.0611,3.0649,3.0663,3.0674,3.0518,3.0517,3.0517,0,0,3.0305,3.0319,3.0369,3.0386,3.0411,3.0413,3.0425,3.0445,3.045,3.0505,3.0485,3.0519,3.0579,3.0596,3.0613,3.0707,3.069,3.0718,3.0769,3.0808,3.0819,3.0829,3.0863,3.0876,3.0725,3.0726,3.0726,0,3.0345,3.0403,3.0396,3.0441,3.0461,3.0438,3.0489,3.0506,3.054,3.0554,3.0532,3.0608,3.0621,3.0691,3.0714,3.0728,3.0742,3.0715,3.0818,3.0828,3.0837,3.087,3.0883,3.0729,3.0729,3.0728,3.0728,0,3.0453,3.0493,3.0531,3.0565,3.059,3.0637,3.0638,3.0663,3.0656,3.066,3.0718,3.0734,3.077,3.0786,3.0778,3.0855,3.0842,3.0819,3.0779,3.0854,3.0885,3.0897,3.0734,3.0733,3.0732,3.0731,0,0,3.0563,3.0595,3.0609,3.0625,3.0652,3.0683,3.073,3.0766,3.0789,3.0813,3.0853,3.0905,3.0885,3.0904,3.0898,3.0933,3.1008,3.0906,3.0906,3.0925,3.1095,3.1113,3.1127,3.0997,3.0999,3.1001,3.1094,0,3.0649,3.0732,3.0728,3.0805,3.0843,3.0823,3.0865,3.0886,3.0892,3.0925,3.0931,3.0969,3.0939,3.0951,3.0984,3.0992,3.1042,3.0985,3.1034,3.1035,3.1029,3.1143,3.1161,3.1247,3.1105,3.1107,3.1109,0,3.076,3.079,3.0872,3.0895,3.091,3.0947,3.0981,3.1014,3.1038,3.104,3.1063,3.1052,3.11,3.106,3.1127,3.1088,3.1108,3.1115,3.1118,3.1122,3.1077,3.1151,3.1275,3.1288,3.1127,3.1126,3.1125,0,3.0834,3.0894,3.0951,3.0966,3.0993,3.102,3.1033,3.1055,3.1078,3.1107,3.1122,3.1157,3.1176,3.1203,3.1203,3.1173,3.1271,3.123,3.1275,3.1275,3.1296,3.1294,3.1425,3.1308,3.1308,3.1308,3.1308,0,3.093,3.0981,3.0985,3.102,3.1077,3.1073,3.1129,3.1139,3.1159,3.1196,3.1181,3.1216,3.1213,3.1248,3.1248,3.1304,3.1313,3.1316,3.1316,3.1318,3.1318,3.133,3.1325,3.1311,3.1311,3.131,3.1309,0,3.1022,3.1026,3.1087,3.1109,3.1116,3.1157,3.1176,3.121,3.1215,3.1263,3.1273,3.1282,3.1324,3.1326,3.1373,3.1373,3.1442,3.1434,3.1434,3.1433,3.1478,3.1474,3.1622,3.1641,3.1511,3.1513,3.1514,0,3.1083,3.1122,3.1149,3.1173,3.1188,3.1227,3.125,3.1248,3.1274,3.1305,3.1336,3.1376,3.1408,3.1475,3.1485,3.1522,3.1515,3.1565,3.1521,3.1522,3.1517,3.1515,3.1519,3.1573,3.1575,3.1576,3.1577,0,3.1192,3.1193,3.1227,3.1264,3.1293,3.1321,3.1348,3.1368,3.137,3.1399,3.1442,3.1467,3.1516,3.1557,3.1593,3.1606,3.1593,3.1591,3.1603,3.1606,3.1605,3.1607,3.1458,3.1587,3.1586,3.1586,3.1585,3.1585,3.127,3.1305,3.133,3.137,3.139,3.1415,3.1449,3.1459,3.1495,3.1536,3.1532,3.158,3.1605,3.1652,3.1669,3.1706,3.1689,3.1707,3.1712,3.1716,3.1722,3.1599,3.1713,3.1713,3.1712,3.1712,3.1712,0,3.1379,3.1395,3.1432,3.147,3.1502,3.1487,3.1516,3.1544,3.1586,3.1611,3.1643,3.1693,3.1733,3.1748,3.1786,3.1814,3.1809,3.1824,3.1822,3.1826,3.1734,3.172,3.1828,3.1828,3.1828,3.1828,3.1828,3.1828,3.1439,3.1497,3.1502,3.157,3.1585,3.1632,3.165,3.1674,3.1694,3.1751,3.1784,3.1794,3.1815,3.1856,3.1892,3.1895,3.191,3.1929,3.193,3.1843,3.1832,3.1821,3.1807,3.1932,3.1932,3.2018,3.2019,3.2019]},{"header":{"parameterUnit":"m.s-1","parameterCategory":1,"la1":30.2991,"la2":30.254,"lo1":-89.0895,"lo2":-89.0444,"dy":0.0017,"dx":0.0017,"nx":28,"ny":28,"refTime":"2026-02-05T09:00:00:Z","depth":0,"parameterNumber":3,"parameterNumberName":"V-component_of_WINDS"},"data":[0,0,0,0,0,0,0,0,0,0,0,0,0,0,0,0,0,0,0,0,0,0,0,0,0,0,0,0,0,0,0,0,0,0,0,0,0,0,0,0,0,0,0,0,0,0,0,0,0,0,0,0,0,0,0,0,0,0,-6.4075,-6.4077,0,-6.4261,-6.4263,-6.4265,-6.4257,-6.4254,-6.4251,-6.4249,-6.4436,-6.4443,-6.445,0,0,0,0,0,0,0,0,0,0,0,0,0,-6.3713,-6.372,-6.4075,-6.4078,-6.408,-6.426,-6.4263,-6.4266,-6.4257,-6.4254,-6.4251,-6.4248,-6.4433,-6.4442,-6.4451,0,0,0,0,0,0,0,0,0,0,0,0,0,-6.3881,-6.3722,-6.4075,-6.4098,-6.4101,-6.426,-6.4263,-6.4266,-6.4258,-6.4254,-6.425,-6.4246,-6.443,-6.4441,-6.4452,-6.46,0,0,-6.4486,-6.4491,0,0,0,0,0,0,0,0,-6.3872,-6.3895,-6.4092,-6.4096,-6.4101,-6.4232,-6.4204,-6.4378,-6.4259,-6.4198,-6.4249,-6.4244,-6.4371,-6.4387,-6.443,-6.4608,-6.4616,-6.4487,-6.4494,-6.4499,-6.4502,0,0,0,0,0,0,0,-6.386,-6.3887,-6.4149,-6.4095,-6.41,-6.4098,-6.4118,-6.4237,-6.4304,-6.4203,-6.4203,-6.4225,-6.4372,-6.4419,-6.4434,-6.4619,-6.4487,-6.4497,-6.4504,-6.4508,-6.493,-6.4935,0,0,0,0,0,0,-6.3844,-6.3877,-6.4143,-6.4154,-6.3974,-6.4108,-6.413,-6.4194,-6.4303,-6.4316,-6.4228,-6.4224,-6.4402,-6.4421,-6.4441,-6.4623,-6.4499,-6.4509,-6.4516,-6.4926,-6.4931,-6.4936,0,0,0,0,0,0,-6.3836,-6.3868,-6.4135,-6.4016,-6.405,-6.4118,-6.419,-6.4199,-6.4246,-6.4322,-6.4334,-6.4264,-6.44,-6.4425,-6.4561,-6.4629,-6.4514,-6.4524,-6.4921,-6.4928,-6.4934,-6.4986,0,0,0,0,0,0,-6.3826,-6.3865,-6.3922,-6.4017,-6.4056,-6.4253,-6.4194,-6.4206,-6.4266,-6.4262,-6.4358,-6.4371,-6.4399,-6.4545,-6.4572,-6.4642,-6.4533,-6.4915,-6.4924,-6.4932,-6.4978,-6.4994,-6.5007,0,0,0,0,0,-6.3813,-6.3928,-6.3925,-6.3957,-6.4129,-6.4257,-6.4279,-6.431,-6.4271,-6.4329,-6.4378,-6.4368,-6.4617,-6.4558,-6.4589,-6.4664,-6.4911,-6.4921,-6.4931,-6.4972,-6.4991,-6.5006,0,0,0,0,0,0,-6.3837,-6.394,-6.3938,-6.4087,-6.4164,-6.4255,-6.4329,-6.4328,-6.4416,-6.4408,-6.4442,-6.4464,-6.4601,-6.4646,-6.4579,-6.4814,-6.4759,-6.4776,-6.4779,-6.4798,-6.4811,-6.4798,-6.4542,0,0,0,0,0,-6.386,-6.3956,-6.4041,-6.4164,-6.4203,-6.4259,-6.4316,-6.4334,-6.4413,-6.4445,-6.4504,-6.4581,-6.4677,-6.474,-6.4832,-6.4985,-6.5007,-6.5051,-6.5065,-6.5077,-6.5091,-6.5178,-6.5199,-6.497,-6.497,-6.497,0,0,-6.3907,-6.3976,-6.4034,-6.4171,-6.4232,-6.4331,-6.4286,-6.4392,-6.4466,-6.4461,-6.4594,-6.464,-6.4728,-6.4874,-6.4941,-6.4916,-6.5159,-6.509,-6.5098,-6.5107,-6.519,-6.5212,-6.5231,-6.4977,-6.4976,-6.4975,0,0,-6.4046,-6.4106,-6.4217,-6.428,-6.4374,-6.4411,-6.4438,-6.453,-6.4561,-6.4696,-6.4695,-6.4782,-6.4946,-6.501,-6.5064,-6.5229,-6.5224,-6.5258,-6.5332,-6.5416,-6.5434,-6.5451,-6.5511,-6.5533,-6.5272,-6.5272,-6.5273,0,-6.4093,-6.4242,-6.4274,-6.4382,-6.4443,-6.4444,-6.4557,-6.4616,-6.4735,-6.4777,-6.4747,-6.4955,-6.5014,-6.5176,-6.5217,-6.526,-6.5292,-6.5248,-6.5429,-6.5446,-6.5462,-6.552,-6.5542,-6.5276,-6.5276,-6.5275,-6.5275,0,-6.4297,-6.4401,-6.4479,-6.4596,-6.4665,-6.4775,-6.4823,-6.489,-6.4902,-6.4942,-6.508,-6.5151,-6.526,-6.5299,-6.531,-6.5464,-6.5445,-6.5422,-6.5368,-6.5487,-6.5542,-6.5565,-6.5282,-6.528,-6.5279,-6.5278,0,0,-6.4455,-6.4589,-6.4618,-6.4672,-6.4776,-6.4857,-6.4967,-6.5074,-6.5132,-6.5214,-6.5308,-6.5448,-6.5428,-6.5489,-6.5508,-6.5582,-6.5711,-6.555,-6.5552,-6.5579,-6.5886,-6.5904,-6.5929,-6.5707,-6.5712,-6.5715,-6.5879,0,-6.4605,-6.4802,-6.4835,-6.5007,-6.5104,-6.5108,-6.5205,-6.5279,-6.5321,-6.5409,-6.5454,-6.5554,-6.5519,-6.5556,-6.5629,-6.5679,-6.5773,-6.5668,-6.5796,-6.58,-6.5775,-6.5958,-6.5977,-6.6128,-6.5901,-6.5904,-6.5907,0,-6.4806,-6.4896,-6.5079,-6.5173,-6.5215,-6.5301,-6.5403,-6.5487,-6.5572,-6.5597,-6.5667,-6.5678,-6.5793,-6.5734,-6.5893,-6.5821,-6.5876,-6.5908,-6.5915,-6.5929,-6.5861,-6.5978,-6.6176,-6.62,-6.5941,-6.5938,-6.5936,0,-6.4905,-6.5071,-6.5203,-6.5249,-6.5361,-6.5422,-6.5471,-6.5553,-6.5616,-6.5705,-6.5747,-6.5847,-6.5903,-6.598,-6.6019,-6.5971,-6.6177,-6.6119,-6.6201,-6.6201,-6.6245,-6.6242,-6.6456,-6.6277,-6.6277,-6.6277,-6.6276,0,-6.507,-6.5182,-6.525,-6.5331,-6.5457,-6.5493,-6.5617,-6.5665,-6.5738,-6.5829,-6.5837,-6.5922,-6.5967,-6.6058,-6.6089,-6.6218,-6.6242,-6.6266,-6.6273,-6.6266,-6.6263,-6.6303,-6.6294,-6.6283,-6.6281,-6.628,-6.6279,0,-6.5202,-6.5252,-6.5396,-6.5491,-6.5518,-6.5607,-6.5688,-6.5767,-6.5809,-6.5924,-6.5953,-6.6018,-6.6126,-6.6172,-6.6304,-6.6325,-6.6474,-6.6472,-6.6445,-6.6448,-6.6528,-6.652,-6.6776,-6.6813,-6.6608,-6.661,-6.6612,0,-6.5305,-6.5392,-6.5498,-6.556,-6.5612,-6.5711,-6.5776,-6.5816,-6.5884,-6.5989,-6.6056,-6.6164,-6.6254,-6.6427,-6.6486,-6.6588,-6.659,-6.6673,-6.6605,-6.6597,-6.6593,-6.6589,-6.6598,-6.6685,-6.6687,-6.6689,-6.669,0,-6.5483,-6.5504,-6.5598,-6.5702,-6.578,-6.5864,-6.5945,-6.5995,-6.6047,-6.6123,-6.6235,-6.6305,-6.6442,-6.655,-6.6656,-6.6707,-6.6708,-6.6711,-6.6736,-6.673,-6.6712,-6.6725,-6.6481,-6.6705,-6.6704,-6.6702,-6.6702,-6.6701,-6.5605,-6.5683,-6.5771,-6.5876,-6.5942,-6.6018,-6.6098,-6.6151,-6.6245,-6.6361,-6.6378,-6.6499,-6.6583,-6.6727,-6.6782,-6.6876,-6.6855,-6.689,-6.69,-6.6908,-6.6915,-6.6696,-6.6895,-6.6895,-6.6895,-6.6894,-6.6894,0,-6.5785,-6.5842,-6.5939,-6.6054,-6.6137,-6.6132,-6.6222,-6.6292,-6.6398,-6.6478,-6.6566,-6.6696,-6.6802,-6.687,-6.6977,-6.704,-6.7044,-6.7067,-6.7064,-6.7076,-6.6926,-6.6895,-6.7063,-6.7063,-6.7063,-6.7063,-6.7063,-6.7063,-6.5889,-6.6022,-6.6053,-6.622,-6.6276,-6.6395,-6.6447,-6.6518,-6.6582,-6.6727,-6.6816,-6.686,-6.6936,-6.7049,-6.7146,-6.7163,-6.7203,-6.7228,-6.7245,-6.7103,-6.7086,-6.7069,-6.704,-6.7236,-6.7237,-6.7387,-6.7388,-6.7389]}]]